TimeICT,TemperatureF,Dew PointF,Humidity,Sea Level PressureIn,VisibilityMPH,Wind Direction,Wind SpeedMPH,Gust SpeedMPH,PrecipitationIn,Events,Conditions,WindDirDegrees,DateUTC
12:00 AM,82.4,73.4,74,29.92,6.2,WSW,2.3,-,N/A,,Mostly Cloudy,240,2012-11-19 17:00:00
12:30 AM,80.6,75.2,84,29.89,6.2,WSW,2.3,-,N/A,,Mostly Cloudy,240,2012-11-19 17:30:00
1:00 AM,80,77,88,29.87,6,Calm,Calm,,,,Overcast,,2012-11-19 18:00:00
1:00 AM,80.6,75.2,84,29.89,6.2,WSW,4.6,-,N/A,,Mostly Cloudy,250,2012-11-19 18:00:00
1:30 AM,80.6,75.2,84,29.86,6.2,West,5.8,-,N/A,,Mostly Cloudy,270,2012-11-19 18:30:00
2:00 AM,80.6,75.2,84,29.86,6.2,SSW,2.3,-,N/A,,Mostly Cloudy,210,2012-11-19 19:00:00
2:30 AM,80.6,75.2,84,29.86,6.2,SSW,2.3,-,N/A,,Mostly Cloudy,210,2012-11-19 19:30:00
3:00 AM,80.6,73.4,79,29.86,6.2,WNW,3.5,-,N/A,,Mostly Cloudy,290,2012-11-19 20:00:00
3:30 AM,78.8,73.4,83,29.86,6.2,Variable,3.5,-,N/A,,Mostly Cloudy,0,2012-11-19 20:30:00
4:00 AM,78.8,73.4,83,29.86,6.2,NW,3.5,-,N/A,,Mostly Cloudy,310,2012-11-19 21:00:00
4:30 AM,78.8,73.4,83,29.86,5.0,Calm,Calm,-,N/A,,Mostly Cloudy,0,2012-11-19 21:30:00
5:00 AM,78.8,75.2,89,29.86,5.0,West,3.5,-,N/A,,Mostly Cloudy,270,2012-11-19 22:00:00
5:30 AM,78.8,75.2,89,29.86,5.0,NW,4.6,-,N/A,,Mostly Cloudy,310,2012-11-19 22:30:00
6:00 AM,78.8,75.2,89,29.89,5.0,NNW,5.8,-,N/A,,Mostly Cloudy,340,2012-11-19 23:00:00
6:30 AM,78.8,75.2,89,29.89,3.7,NNW,4.6,-,N/A,,Mostly Cloudy,340,2012-11-19 23:30:00
7:00 AM,80,76,83,29.88,6,Calm,Calm,,,,Overcast,,2012-11-20 00:00:00
7:00 AM,80.6,75.2,84,29.89,3.1,NW,3.5,-,N/A,,Mostly Cloudy,310,2012-11-20 00:00:00
7:30 AM,80.6,75.2,84,29.92,3.1,NNW,4.6,-,N/A,,Mostly Cloudy,330,2012-11-20 00:30:00
8:00 AM,82.4,75.2,79,29.92,3.7,NNW,4.6,-,N/A,,Mostly Cloudy,340,2012-11-20 01:00:00
8:30 AM,84.2,75.2,74,29.92,4.3,North,3.5,-,N/A,,Mostly Cloudy,360,2012-11-20 01:30:00
9:00 AM,84.2,75.2,74,29.92,5.6,North,3.5,-,N/A,,Mostly Cloudy,10,2012-11-20 02:00:00
9:30 AM,84.2,75.2,74,29.95,6.2,North,4.6,-,N/A,,Mostly Cloudy,360,2012-11-20 02:30:00
10:00 AM,86.0,73.4,66,29.95,6.2,NNE,5.8,-,N/A,,Mostly Cloudy,30,2012-11-20 03:00:00
10:30 AM,86.0,75.2,70,29.92,6.2,ENE,3.5,-,N/A,,Mostly Cloudy,60,2012-11-20 03:30:00
11:00 AM,87.8,73.4,62,29.92,6.2,East,5.8,-,N/A,,Mostly Cloudy,80,2012-11-20 04:00:00
11:30 AM,89.6,75.2,62,29.89,6.2,East,4.6,-,N/A,,Mostly Cloudy,90,2012-11-20 04:30:00
12:00 PM,89.6,71.6,55,29.86,6.2,East,5.8,-,N/A,,Mostly Cloudy,90,2012-11-20 05:00:00
12:30 PM,89.6,73.4,59,29.86,6.2,East,8.1,-,N/A,,Mostly Cloudy,100,2012-11-20 05:30:00
1:00 PM,86,78,71,29.83,6,Calm,Calm,,,,Overcast,,2012-11-20 06:00:00
1:00 PM,89.6,71.6,55,29.83,6.2,ESE,6.9,-,N/A,,Mostly Cloudy,110,2012-11-20 06:00:00
1:30 PM,89.6,71.6,55,29.80,6.2,ESE,5.8,-,N/A,,Mostly Cloudy,120,2012-11-20 06:30:00
2:00 PM,89.6,71.6,55,29.80,6.2,East,5.8,-,N/A,,Mostly Cloudy,100,2012-11-20 07:00:00
2:30 PM,89.6,71.6,55,29.80,6.2,East,8.1,-,N/A,,Mostly Cloudy,100,2012-11-20 07:30:00
3:00 PM,87.8,71.6,58,29.80,6.2,East,6.9,18.4,N/A,,Mostly Cloudy,100,2012-11-20 08:00:00
3:30 PM,87.8,71.6,58,29.80,6.2,East,4.6,-,N/A,,Mostly Cloudy,100,2012-11-20 08:30:00
4:00 PM,87.8,73.4,62,29.80,6.2,SSW,5.8,-,N/A,,Mostly Cloudy,210,2012-11-20 09:00:00
4:30 PM,86.0,73.4,66,29.77,6.2,SW,6.9,-,N/A,,Mostly Cloudy,230,2012-11-20 09:30:00
5:00 PM,86.0,73.4,66,29.80,6.2,WSW,6.9,-,N/A,,Mostly Cloudy,240,2012-11-20 10:00:00
5:30 PM,84.2,73.4,70,29.80,6.2,WSW,6.9,-,N/A,,Mostly Cloudy,240,2012-11-20 10:30:00
6:00 PM,84.2,71.6,66,29.83,6.2,West,5.8,-,N/A,,Mostly Cloudy,260,2012-11-20 11:00:00
6:30 PM,82.4,71.6,70,29.83,6.2,West,3.5,-,N/A,,Mostly Cloudy,260,2012-11-20 11:30:00
7:00 PM,81,78,88,29.85,1,Calm,Calm,,,Rain-Thunderstorm,Thunderstorms and Rain,,2012-11-20 12:00:00
7:00 PM,82.4,71.6,70,29.86,6.2,West,3.5,-,N/A,,Mostly Cloudy,260,2012-11-20 12:00:00
7:30 PM,82.4,73.4,74,29.86,6.2,SW,4.6,-,N/A,,Mostly Cloudy,230,2012-11-20 12:30:00
8:00 PM,82.4,73.4,74,29.89,6.2,SW,3.5,-,N/A,,Mostly Cloudy,220,2012-11-20 13:00:00
8:30 PM,82.4,73.4,74,29.89,6.2,SSW,4.6,-,N/A,Thunderstorm,Thunderstorm,210,2012-11-20 13:30:00
9:00 PM,82.4,73.4,74,29.89,5.6,South,5.8,-,N/A,Rain-Thunderstorm,Light Thunderstorms and Rain,190,2012-11-20 14:00:00
9:30 PM,80.6,73.4,79,29.92,5.0,SE,9.2,-,N/A,Rain-Thunderstorm,Light Thunderstorms and Rain,140,2012-11-20 14:30:00
10:00 PM,80.6,73.4,79,29.92,5.0,East,5.8,-,N/A,Rain-Thunderstorm,Light Thunderstorms and Rain,90,2012-11-20 15:00:00
10:30 PM,80.6,73.4,79,29.92,6.2,South,4.6,-,N/A,,Mostly Cloudy,170,2012-11-20 15:30:00
11:00 PM,80.6,73.4,79,29.92,5.6,South,5.8,-,N/A,Rain,Light Rain,190,2012-11-20 16:00:00
11:30 PM,80.6,73.4,79,29.92,5.6,South,5.8,-,N/A,Rain,Light Rain,190,2012-11-20 16:30:00